Location: Caltech
(34.1382°N, 118.1253°W)
Time: 05:04:17
(UTC-07:00)

Oscar 10/S400 - Visible Passes

Search period start: 28 March 2017 00:00
Search period end: 07 April 2017 00:00
Orbit: 4003 x 35443 km, 26.9° (Epoch: 23 March)

Date Brightness Start Highest point End Pass type
(mag) Time Alt. Az. Time Alt. Az. Time Alt. Az.
29 Mar ? 00:47:59 10° WNW 02:07:57 15° WNW 04:06:06 10° WNW visible
29 Mar ? 23:30:15 10° W 01:24:54 23° WNW 05:03:36 10° WNW visible
30 Mar ? 22:28:24 10° W 00:41:43 31° W 05:53:11 10° W visible
31 Mar ? 21:33:04 10° W 23:58:24 40° W 06:58:15 10° WSW visible
01 Apr ? 20:41:22 10° W 23:15:01 49° W 06:48:29 10° SSW visible
02 Apr ? 19:52:01 10° WSW 22:31:48 58° W 06:11:41 10° S visible
03 Apr ? 19:04:17 10° WSW 21:49:29 67° WSW 05:31:09 10° S visible
04 Apr ? 18:17:43 10° WSW 21:10:29 75° SW 04:49:06 10° SSE visible
05 Apr ? 17:32:03 10° WSW 20:49:29 81° SSW 04:06:07 10° SSE visible
